Time,TemperatureF,DewpointF,PressureIn,WindDirection,WindDirectionDegrees,WindSpeedMPH,WindSpeedGustMPH,Humidity,HourlyPrecipIn,Conditions,Clouds,dailyrainin,SoftwareType,DateUTC
2013-01-07 00:02:00,39.0,-1.0,29.80,WSW,237,9.0,17.0,18,0.00,,,0.00,,2013-01-07 07:02:00,
2013-01-07 00:12:00,39.0,-1.0,29.80,WSW,237,9.0,17.0,18,0.00,,,0.00,,2013-01-07 07:12:00,
2013-01-07 00:22:00,38.0,-2.0,29.80,West,265,9.0,14.0,18,0.00,,,0.00,,2013-01-07 07:22:00,
2013-01-07 00:33:00,38.0,-1.0,29.80,SW,234,9.0,14.0,19,0.00,,,0.00,,2013-01-07 07:33:00,
2013-01-07 00:42:00,38.0,-1.0,29.80,SW,234,9.0,14.0,19,0.00,,,0.00,,2013-01-07 07:42:00,
2013-01-07 00:53:00,37.0,0.0,29.82,West,259,7.0,14.0,20,0.00,,,0.00,,2013-01-07 07:53:00,
2013-01-07 01:03:00,37.0,-1.0,29.82,WSW,237,9.0,14.0,19,0.00,,,0.00,,2013-01-07 08:03:00,
2013-01-07 01:12:00,37.0,-1.0,29.82,WSW,237,9.0,14.0,19,0.00,,,0.00,,2013-01-07 08:12:00,
2013-01-07 01:22:00,37.0,-1.0,29.79,SW,230,11.0,20.0,19,0.00,,,0.00,,2013-01-07 08:22:00,
2013-01-07 01:32:00,37.0,0.0,29.79,West,262,11.0,14.0,20,0.00,,,0.00,,2013-01-07 08:32:00,
2013-01-07 01:42:00,37.0,0.0,29.79,West,262,11.0,14.0,20,0.00,,,0.00,,2013-01-07 08:42:00,
2013-01-07 01:53:00,37.0,-1.0,29.79,WSW,241,10.0,14.0,19,0.00,,,0.00,,2013-01-07 08:53:00,
2013-01-07 02:02:00,37.0,-3.0,29.79,West,264,12.0,18.0,18,0.00,,,0.00,,2013-01-07 09:02:00,
2013-01-07 02:12:00,37.0,-3.0,29.79,West,264,12.0,18.0,18,0.00,,,0.00,,2013-01-07 09:12:00,
2013-01-07 02:22:00,37.0,-3.0,29.79,WSW,238,13.0,21.0,18,0.00,,,0.00,,2013-01-07 09:22:00,
2013-01-07 02:32:00,37.0,-4.0,29.78,SW,234,12.0,20.0,17,0.00,,,0.00,,2013-01-07 09:32:00,
2013-01-07 02:42:00,37.0,-4.0,29.78,SW,234,12.0,20.0,17,0.00,,,0.00,,2013-01-07 09:42:00,
2013-01-07 02:52:00,37.0,-4.0,29.77,WSW,239,13.0,22.0,17,0.00,,,0.00,,2013-01-07 09:52:00,
2013-01-07 03:02:00,37.0,-5.0,29.77,WSW,252,14.0,20.0,16,0.00,,,0.00,,2013-01-07 10:02:00,
2013-01-07 03:12:00,38.0,-4.0,29.75,WSW,249,14.0,21.0,16,0.00,,,0.00,,2013-01-07 10:12:00,
2013-01-07 03:22:00,38.0,-4.0,29.75,WSW,249,14.0,21.0,16,0.00,,,0.00,,2013-01-07 10:22:00,
2013-01-07 03:32:00,38.0,-5.0,29.75,WSW,241,12.0,24.0,15,0.00,,,0.00,,2013-01-07 10:32:00,
2013-01-07 03:42:00,38.0,-5.0,29.75,WSW,241,12.0,24.0,15,0.00,,,0.00,,2013-01-07 10:42:00,
2013-01-07 03:52:00,38.0,-5.0,29.80,WSW,237,16.0,24.0,15,0.00,,,0.00,,2013-01-07 10:52:00,
2013-01-07 04:02:00,38.0,-5.0,29.80,SW,224,12.0,18.0,15,0.00,,,0.00,,2013-01-07 11:02:00,
2013-01-07 04:12:00,38.0,-5.0,29.80,SW,224,12.0,18.0,15,0.00,,,0.00,,2013-01-07 11:12:00,
2013-01-07 04:22:00,38.0,-7.0,29.82,West,271,7.0,18.0,14,0.00,,,0.00,,2013-01-07 11:22:00,
2013-01-07 04:32:00,37.0,-8.0,29.82,WSW,249,9.0,16.0,14,0.00,,,0.00,,2013-01-07 11:32:00,
2013-01-07 04:43:00,37.0,-8.0,29.82,WSW,249,9.0,16.0,14,0.00,,,0.00,,2013-01-07 11:43:00,
2013-01-07 04:53:00,37.0,-8.0,29.84,West,262,11.0,18.0,14,0.00,,,0.00,,2013-01-07 11:53:00,
2013-01-07 05:02:00,38.0,-7.0,29.84,West,264,8.0,18.0,14,0.00,,,0.00,,2013-01-07 12:02:00,
2013-01-07 05:12:00,38.0,-7.0,29.84,WSW,256,9.0,18.0,14,0.00,,,0.00,,2013-01-07 12:12:00,
2013-01-07 05:22:00,38.0,-7.0,29.84,WSW,256,9.0,18.0,14,0.00,,,0.00,,2013-01-07 12:22:00,
2013-01-07 05:32:00,38.0,-7.0,29.84,SW,230,6.0,18.0,14,0.00,,,0.00,,2013-01-07 12:32:00,
2013-01-07 05:43:00,38.0,-7.0,29.84,SW,230,6.0,18.0,14,0.00,,,0.00,,2013-01-07 12:43:00,
2013-01-07 05:53:00,37.0,-8.0,29.91,SW,230,0.0,6.0,14,0.00,,,0.00,,2013-01-07 12:53:00,
2013-01-07 06:02:00,36.0,-9.0,29.91,WSW,247,7.0,8.0,14,0.00,,,0.00,,2013-01-07 13:02:00,
2013-01-07 06:12:00,36.0,-9.0,29.91,WSW,247,7.0,8.0,14,0.00,,,0.00,,2013-01-07 13:12:00,
2013-01-07 06:23:00,36.0,-7.0,29.93,West,268,5.0,12.0,15,0.00,,,0.00,,2013-01-07 13:23:00,
2013-01-07 06:33:00,37.0,-8.0,29.93,West,278,5.0,12.0,14,0.00,,,0.00,,2013-01-07 13:33:00,
2013-01-07 06:42:00,37.0,-8.0,29.93,West,278,5.0,12.0,14,0.00,,,0.00,,2013-01-07 13:42:00,
2013-01-07 06:53:00,36.0,-7.0,29.97,West,266,3.0,8.0,15,0.00,,,0.00,,2013-01-07 13:53:00,
2013-01-07 07:03:00,35.0,-8.0,29.97,NW,306,3.0,12.0,15,0.00,,,0.00,,2013-01-07 14:03:00,
2013-01-07 07:12:00,35.0,-8.0,29.97,NW,306,3.0,12.0,15,0.00,,,0.00,,2013-01-07 14:12:00,
2013-01-07 07:22:00,34.0,-9.0,29.99,West,266,7.0,10.0,15,0.00,,,0.00,,2013-01-07 14:22:00,
2013-01-07 07:33:00,34.0,-6.0,29.99,WSW,241,1.0,10.0,17,0.00,,,0.00,,2013-01-07 14:33:00,
2013-01-07 07:42:00,34.0,-6.0,29.99,WSW,241,1.0,10.0,17,0.00,,,0.00,,2013-01-07 14:42:00,
2013-01-07 07:53:00,32.0,-4.0,30.01,WSW,254,3.0,6.0,20,0.00,,,0.00,,2013-01-07 14:53:00,
2013-01-07 08:03:00,30.0,-6.0,30.02,SW,216,5.0,7.0,20,0.00,,,0.00,,2013-01-07 15:03:00,
2013-01-07 08:12:00,30.0,-6.0,30.02,SW,216,5.0,7.0,20,0.00,,,0.00,,2013-01-07 15:12:00,
2013-01-07 08:22:00,28.0,-4.0,30.06,SW,216,1.0,3.0,24,0.00,,,0.00,,2013-01-07 15:22:00,
2013-01-07 08:33:00,29.0,-6.0,30.05,WSW,251,4.0,7.0,21,0.00,,,0.00,,2013-01-07 15:33:00,
2013-01-07 08:42:00,29.0,-6.0,30.05,WSW,251,4.0,7.0,21,0.00,,,0.00,,2013-01-07 15:42:00,
2013-01-07 08:53:00,32.0,-7.0,30.00,West,266,4.0,10.0,18,0.00,,,0.00,,2013-01-07 15:53:00,
2013-01-07 09:02:00,30.0,0.0,30.00,NW,321,5.0,7.0,27,0.00,,,0.00,,2013-01-07 16:02:00,
2013-01-07 09:12:00,30.0,0.0,30.00,NW,321,5.0,7.0,27,0.00,,,0.00,,2013-01-07 16:12:00,
2013-01-07 09:22:00,30.0,-4.0,30.02,SW,220,4.0,7.0,22,0.00,,,0.00,,2013-01-07 16:22:00,
2013-01-07 09:33:00,35.0,-5.0,30.02,WSW,241,7.0,12.0,17,0.00,,,0.00,,2013-01-07 16:33:00,
2013-01-07 09:43:00,35.0,-5.0,30.02,WSW,241,7.0,12.0,17,0.00,,,0.00,,2013-01-07 16:43:00,
2013-01-07 09:53:00,37.0,-9.0,29.93,WNW,285,8.0,14.0,13,0.00,,,0.00,,2013-01-07 16:53:00,
2013-01-07 10:02:00,38.0,-8.0,29.93,WSW,245,10.0,17.0,13,0.00,,,0.00,,2013-01-07 17:02:00,
2013-01-07 10:12:00,38.0,-8.0,29.93,WSW,245,10.0,17.0,13,0.00,,,0.00,,2013-01-07 17:12:00,
2013-01-07 10:23:00,40.0,-10.0,29.93,West,270,7.0,18.0,11,0.00,,,0.00,,2013-01-07 17:23:00,
2013-01-07 10:33:00,41.0,-9.0,29.94,West,262,8.0,18.0,11,0.00,,,0.00,,2013-01-07 17:33:00,
2013-01-07 10:42:00,41.0,-9.0,29.94,West,262,8.0,18.0,11,0.00,,,0.00,,2013-01-07 17:42:00,
2013-01-07 10:53:00,42.0,-13.0,30.06,West,269,5.0,12.0,9,0.00,,,0.00,,2013-01-07 17:53:00,
2013-01-07 11:03:00,44.0,-11.0,30.06,West,278,5.0,14.0,9,0.00,,,0.00,,2013-01-07 18:03:00,
2013-01-07 11:12:00,44.0,-11.0,30.06,West,278,5.0,14.0,9,0.00,,,0.00,,2013-01-07 18:12:00,
2013-01-07 11:23:00,44.0,-11.0,30.03,WNW,283,7.0,13.0,9,0.00,,,0.00,,2013-01-07 18:23:00,
2013-01-07 11:32:00,44.0,-11.0,30.03,WSW,242,8.0,12.0,9,0.00,,,0.00,,2013-01-07 18:32:00,
2013-01-07 11:42:00,44.0,-11.0,30.03,WSW,242,8.0,12.0,9,0.00,,,0.00,,2013-01-07 18:42:00,
2013-01-07 11:53:00,44.0,-11.0,29.85,SW,231,9.0,13.0,9,0.00,,,0.00,,2013-01-07 18:53:00,
2013-01-07 12:03:00,45.0,-10.0,29.85,WSW,242,9.0,14.0,9,0.00,,,0.00,,2013-01-07 19:03:00,
2013-01-07 12:12:00,45.0,-10.0,29.85,WSW,242,9.0,14.0,9,0.00,,,0.00,,2013-01-07 19:12:00,
2013-01-07 12:22:00,46.0,-12.0,29.83,SSW,211,10.0,14.0,8,0.00,,,0.00,,2013-01-07 19:22:00,
2013-01-07 12:33:00,46.0,-10.0,29.83,WSW,256,7.0,16.0,9,0.00,,,0.00,,2013-01-07 19:33:00,
2013-01-07 12:42:00,46.0,-10.0,29.83,WSW,256,7.0,16.0,9,0.00,,,0.00,,2013-01-07 19:42:00,
2013-01-07 12:53:00,46.0,-15.0,29.79,SW,227,5.0,16.0,7,0.00,,,0.00,,2013-01-07 19:53:00,
2013-01-07 13:03:00,45.0,-8.0,29.79,West,259,4.0,16.0,10,0.00,,,0.00,,2013-01-07 20:03:00,
2013-01-07 13:12:00,45.0,-8.0,29.79,West,259,4.0,16.0,10,0.00,,,0.00,,2013-01-07 20:12:00,
2013-01-07 13:23:00,45.0,-10.0,29.79,SW,225,9.0,16.0,9,0.00,,,0.00,,2013-01-07 20:23:00,
2013-01-07 13:33:00,46.0,-7.0,29.79,WSW,242,12.0,20.0,10,0.00,,,0.00,,2013-01-07 20:33:00,
2013-01-07 13:42:00,46.0,-7.0,29.79,WSW,242,12.0,20.0,10,0.00,,,0.00,,2013-01-07 20:42:00,
2013-01-07 13:53:00,45.0,-6.0,29.78,SW,228,10.0,18.0,11,0.00,,,0.00,,2013-01-07 20:53:00,
2013-01-07 14:02:00,45.0,-8.0,29.78,SSW,211,12.0,18.0,10,0.00,,,0.00,,2013-01-07 21:02:00,
2013-01-07 14:12:00,45.0,-8.0,29.78,SSW,211,12.0,18.0,10,0.00,,,0.00,,2013-01-07 21:12:00,
2013-01-07 14:22:00,47.0,-5.0,29.78,South,183,10.0,18.0,11,0.00,,,0.00,,2013-01-07 21:22:00,
2013-01-07 14:33:00,46.0,-7.0,29.78,SW,217,13.0,21.0,10,0.00,,,0.00,,2013-01-07 21:33:00,
2013-01-07 14:42:00,46.0,-7.0,29.78,SW,217,13.0,21.0,10,0.00,,,0.00,,2013-01-07 21:42:00,
2013-01-07 14:53:00,46.0,-6.0,29.76,WSW,238,10.0,18.0,11,0.00,,,0.00,,2013-01-07 21:53:00,
2013-01-07 15:02:00,46.0,-6.0,29.76,West,273,9.0,20.0,11,0.00,,,0.00,,2013-01-07 22:02:00,
2013-01-07 15:12:00,46.0,-6.0,29.76,West,273,9.0,20.0,11,0.00,,,0.00,,2013-01-07 22:12:00,
2013-01-07 15:22:00,45.0,-6.0,29.78,SW,223,10.0,17.0,11,0.00,,,0.00,,2013-01-07 22:22:00,
2013-01-07 15:33:00,45.0,-5.0,29.78,SSW,200,10.0,20.0,12,0.00,,,0.00,,2013-01-07 22:33:00,
2013-01-07 15:42:00,45.0,-5.0,29.78,SSW,200,10.0,20.0,12,0.00,,,0.00,,2013-01-07 22:42:00,
2013-01-07 15:53:00,44.0,-5.0,29.78,WSW,249,10.0,20.0,12,0.00,,,0.00,,2013-01-07 22:53:00,
2013-01-07 16:02:00,43.0,-4.0,29.78,WSW,244,3.0,14.0,13,0.00,,,0.00,,2013-01-07 23:02:00,
2013-01-07 16:12:00,43.0,-4.0,29.78,WSW,244,3.0,14.0,13,0.00,,,0.00,,2013-01-07 23:12:00,
2013-01-07 16:22:00,43.0,-6.0,29.80,WSW,258,6.0,12.0,12,0.00,,,0.00,,2013-01-07 23:22:00,
2013-01-07 16:32:00,43.0,-6.0,29.80,WSW,258,1.0,6.0,12,0.00,,,0.00,,2013-01-07 23:32:00,
2013-01-07 16:42:00,43.0,-6.0,29.80,WSW,258,1.0,6.0,12,0.00,,,0.00,,2013-01-07 23:42:00,
2013-01-07 16:53:00,41.0,-6.0,29.80,West,264,5.0,12.0,13,0.00,,,0.00,,2013-01-07 23:53:00,
2013-01-07 17:02:00,40.0,-8.0,29.80,West,262,2.0,8.0,12,0.00,,,0.00,,2013-01-08 00:02:00,
2013-01-07 17:12:00,40.0,-8.0,29.80,West,262,2.0,8.0,12,0.00,,,0.00,,2013-01-08 00:12:00,
2013-01-07 17:22:00,39.0,-9.0,29.83,West,272,5.0,10.0,12,0.00,,,0.00,,2013-01-08 00:22:00,
2013-01-07 17:33:00,39.0,-9.0,29.83,West,266,2.0,8.0,12,0.00,,,0.00,,2013-01-08 00:33:00,
2013-01-07 17:42:00,39.0,-9.0,29.83,West,266,2.0,8.0,12,0.00,,,0.00,,2013-01-08 00:42:00,
2013-01-07 17:53:00,37.0,-9.0,29.87,West,266,2.0,3.0,13,0.00,,,0.00,,2013-01-08 00:53:00,
2013-01-07 18:02:00,35.0,-7.0,29.87,West,266,1.0,3.0,16,0.00,,,0.00,,2013-01-08 01:02:00,
2013-01-07 18:12:00,35.0,-7.0,29.87,West,266,1.0,3.0,16,0.00,,,0.00,,2013-01-08 01:12:00,
2013-01-07 18:22:00,35.0,-8.0,29.88,WSW,238,0.0,7.0,15,0.00,,,0.00,,2013-01-08 01:22:00,
2013-01-07 18:32:00,34.0,-7.0,29.88,WSW,238,2.0,5.0,16,0.00,,,0.00,,2013-01-08 01:32:00,
2013-01-07 18:42:00,34.0,-7.0,29.88,WSW,238,2.0,5.0,16,0.00,,,0.00,,2013-01-08 01:42:00,
2013-01-07 18:52:00,31.0,-7.0,29.90,WSW,247,3.0,5.0,18,0.00,,,0.00,,2013-01-08 01:52:00,
2013-01-07 19:02:00,31.0,-7.0,29.90,WSW,247,2.0,3.0,18,0.00,,,0.00,,2013-01-08 02:02:00,
2013-01-07 19:12:00,31.0,-7.0,29.90,WSW,247,2.0,3.0,18,0.00,,,0.00,,2013-01-08 02:12:00,
2013-01-07 19:22:00,30.0,-6.0,29.91,NNW,328,2.0,7.0,20,0.00,,,0.00,,2013-01-08 02:22:00,
2013-01-07 19:32:00,29.0,-7.0,29.91,NW,323,3.0,5.0,20,0.00,,,0.00,,2013-01-08 02:32:00,
2013-01-07 19:42:00,29.0,-7.0,29.91,NW,323,3.0,5.0,20,0.00,,,0.00,,2013-01-08 02:42:00,
2013-01-07 19:53:00,30.0,-7.0,29.96,NW,317,1.0,6.0,19,0.00,,,0.00,,2013-01-08 02:53:00,
2013-01-07 20:03:00,33.0,-10.0,29.96,WSW,241,3.0,12.0,15,0.00,,,0.00,,2013-01-08 03:03:00,
2013-01-07 20:12:00,33.0,-10.0,29.96,WSW,241,3.0,12.0,15,0.00,,,0.00,,2013-01-08 03:12:00,
2013-01-07 20:22:00,36.0,-9.0,29.89,NNW,340,7.0,14.0,14,0.00,,,0.00,,2013-01-08 03:22:00,
2013-01-07 20:32:00,37.0,-8.0,29.89,SSW,201,13.0,24.0,14,0.00,,,0.00,,2013-01-08 03:32:00,
2013-01-07 20:42:00,37.0,-8.0,29.89,SSW,201,13.0,24.0,14,0.00,,,0.00,,2013-01-08 03:42:00,
2013-01-07 20:53:00,37.0,-9.0,29.87,WSW,240,10.0,16.0,13,0.00,,,0.00,,2013-01-08 03:53:00,
2013-01-07 21:02:00,37.0,-9.0,29.87,WSW,242,7.0,17.0,13,0.00,,,0.00,,2013-01-08 04:02:00,
2013-01-07 21:12:00,37.0,-9.0,29.87,WSW,242,7.0,17.0,13,0.00,,,0.00,,2013-01-08 04:12:00,
2013-01-07 21:22:00,37.0,-11.0,29.87,WSW,247,6.0,16.0,12,0.00,,,0.00,,2013-01-08 04:22:00,
2013-01-07 21:32:00,38.0,-10.0,29.86,WSW,250,9.0,18.0,12,0.00,,,0.00,,2013-01-08 04:32:00,
2013-01-07 21:42:00,38.0,-10.0,29.86,WSW,250,9.0,18.0,12,0.00,,,0.00,,2013-01-08 04:42:00,
2013-01-07 21:52:00,37.0,-9.0,29.76,West,268,14.0,24.0,13,0.00,,,0.00,,2013-01-08 04:52:00,
2013-01-07 22:03:00,37.0,-8.0,29.76,WSW,245,12.0,21.0,14,0.00,,,0.00,,2013-01-08 05:03:00,
2013-01-07 22:12:00,37.0,-8.0,29.76,WSW,245,12.0,21.0,14,0.00,,,0.00,,2013-01-08 05:12:00,
2013-01-07 22:22:00,37.0,-8.0,29.75,SW,235,16.0,25.0,14,0.00,,,0.00,,2013-01-08 05:22:00,
2013-01-07 22:33:00,37.0,-9.0,29.75,WSW,244,17.0,26.0,13,0.00,,,0.00,,2013-01-08 05:33:00,
2013-01-07 22:42:00,37.0,-9.0,29.75,WSW,244,17.0,26.0,13,0.00,,,0.00,,2013-01-08 05:42:00,
2013-01-07 22:53:00,37.0,-8.0,29.71,SW,217,17.0,26.0,14,0.00,,,0.00,,2013-01-08 05:53:00,
2013-01-07 23:02:00,36.0,-9.0,29.72,WSW,251,16.0,31.0,14,0.00,,,0.00,,2013-01-08 06:02:00,
2013-01-07 23:12:00,36.0,-9.0,29.72,WSW,251,16.0,31.0,14,0.00,,,0.00,,2013-01-08 06:12:00,
2013-01-07 23:22:00,36.0,-9.0,29.71,SW,214,20.0,35.0,14,0.00,,,0.00,,2013-01-08 06:22:00,
2013-01-07 23:33:00,35.0,-8.0,29.72,SW,231,13.0,25.0,15,0.00,,,0.00,,2013-01-08 06:33:00,
2013-01-07 23:42:00,35.0,-8.0,29.72,SW,231,13.0,25.0,15,0.00,,,0.00,,2013-01-08 06:42:00,
2013-01-07 23:52:00,35.0,-8.0,29.73,WSW,240,9.0,20.0,15,0.00,,,0.00,,2013-01-08 06:52:00,